This demonstration page uses our WeatherBlox Daily Observations layout. Learn more.

39.92423, -83.80882

Hourly Observations for December 17, 2018

Temp ( °F °C ) Dew Point ( °F °C ) Humidity (%) Winds ( mph kmh ) Pressure ( in mb ) Visibility ( mi km ) Precip ( " mm )
12:56 am 00:56 Clear 36 2.2 35 1.7 97 97 W 8 13 30.09 1019 9 14.48406 0 0
1:56 am 01:56 Clear 35 1.7 34 1.1 96 96 SW 8 13 30.06 1018 10 16.0934 0 0
2:56 am 02:56 Clear 34 1.1 33 0.6 97 97 W 8 13 30.07 1018 10 16.0934 0 0
3:56 am 03:56 Clear 33 0.6 32 0 96 96 W 9 15 30.07 1018 9 14.48406 0 0
4:56 am 04:56 Clear 33 0.6 32 0 96 96 W 9 15 30.08 1019 7 11.26538 0 0
5:56 am 05:56 Clear 32 0 31 -0.6 96 96 W 9 15 30.09 1019 7 11.26538 0 0
6:56 am 06:56 Clear 33 0.6 31 -0.6 92 92 W 9 15 30.1 1019 9 14.48406 0 0
7:56 am 07:56 Sunny with Mist and Fog 32 0 31 -0.6 96 96 WSW 9 15 30.1 1019 6 9.65604 0 0
8:56 am 08:56 Sunny 33 0.6 31 -0.6 92 92 W 8 13 30.13 1020 7 11.26538 0 0
9:56 am 09:56 Sunny 36 2.2 32 0 86 86 WNW 10 17 30.14 1021 10 16.0934 0 0
10:56 am 10:56 Sunny 37 2.8 32 0 82 82 WNW 13 20 30.14 1021 10 16.0934 0 0
11:56 am 11:56 Sunny 39 3.9 33 0.6 79 79 NW 13 20 30.13 1020 10 16.0934 0 0
12:56 pm 12:56 Mostly Cloudy 40 4.4 34 1.1 79 79 NW 12 19 30.12 1020 10 16.0934 0 0
1:28 pm 13:28 Partly Cloudy 41 5 34 1 76 76 WNW 15 24 30.12 1020 10 16.0934 0 0
1:56 pm 13:56 Sunny 40 4.4 32 0 73 73 WNW 12 19 30.11 1020 10 16.0934 0 0
2:56 pm 14:56 Mostly Sunny 41 5 32 0 70 70 WNW 15 24 30.11 1020 10 16.0934 0 0
3:22 pm 15:22 Mostly Cloudy 41 5 32 0 70 70 NNW 13 20 30.12 1020 10 16.0934 0 0
3:30 pm 15:30 Partly Cloudy 39 4 30 -1 70 70 NW 14 22 30.12 1020 10 16.0934 0 0
3:53 pm 15:53 Mostly Cloudy 41 5 32 0 70 70 NW 12 19 30.12 1020 10 16.0934 0 0
4:40 pm 16:40 Partly Cloudy 37 3 30 -1 75 75 NW 9 15 30.18 1022 10 16.0934 0 0
4:48 pm 16:48 Mostly Cloudy 37 3 30 -1 75 75 NW 10 17 30.18 1022 10 16.0934 0 0
4:56 pm 16:56 Mostly Cloudy 38 3.3 30 -1.1 73 73 NW 10 17 30.16 1021 10 16.0934 0 0
5:56 pm 17:56 Cloudy 36 2.2 30 -1.1 79 79 NW 6 9 30.18 1022 10 16.0934 0 0
6:56 pm 18:56 Cloudy 36 2.2 31 -0.6 82 82 NW 8 13 30.19 1022 10 16.0934 0 0
7:43 pm 19:43 Partly Cloudy 34 1 30 -1 87 87 NW 7 11 30.24 1024 10 16.0934 0 0
7:56 pm 19:56 Clear 34 1.1 30 -1.1 85 85 WNW 7 11 30.21 1023 10 16.0934 0 0
8:56 pm 20:56 Clear 32 0 30 -1.1 92 92 W 7 11 30.2 1023 10 16.0934 0 0
9:56 pm 21:56 Clear 32 0 30 -1.1 92 92 WNW 8 13 30.2 1023 10 16.0934 0 0
10:56 pm 22:56 Clear 31 -0.6 30 -1.1 96 96 NW 8 13 30.21 1023 10 16.0934 0 0
11:56 pm 23:56 Clear 29 -1.7 28 -2.2 96 96 NNW 7 11 30.2 1023 10 16.0934 0 0

Powered by AerisWeather